OneWeb SL0323

operational
NORAD ID: 49106 Int'l Des: 2021-075 Owner: ONEWEBN Country: UK Constellation: oneweb
LEOCIRCULARPOLARONEWEB_TYPE

Über OneWeb SL0323

Beschreibung wird geladen...

Live-Position

3D-Globus wird geladen...

Nächste Überflüge

Höhenverlauf

Altitude vs Time

uPlot chart will show altitude changes over time

Zweizeiliger Elementsatz

1 49106U 21075AH 25305.54900804 .00000467 00000-0 12617-2 0 9996
2 49106 87.8970 35.8653 0001371 81.5556 278.5727 13.12442810204698
Epoch: 1. Nov. 2025 • Age: 26 hours

Aktueller Status

Höhe 1217.8 km
Geschwindigkeit 7.25 km/s
Subsatellitenpunkt 35.63°N, 130.43°E
Startdatum 21. Aug. 2021
Alter 4.1 years
Typ internet

Technische Details

Klassifizierung Payload
Masse 148.00 kg
Trockenmasse 140.00 kg
Gesamtmasse 148.00 kg
Länge 1.30 m
Durchmesser 1.00 m
Spannweite 5.00 m
Form Trapezoid+2 pan
Hersteller ONEWUS
Bus-Typ ARROW
Phasenstatus In Orbit
Besitzer/Staat ONEWEBN/UK

Große Konstellationen

Loading constellations...